Home   Weather   Mons   Past weeks

Flag for Belgium Past Weather in Mons, Belgium — Yesterday and Last 2 Weeks

Now
61 °F

Passing clouds.


Feels Like: 61 °F
Forecast: 56 / 72 °F
Wind: 7 mph from South

Location: Chievres

Current Time: Sep 27, 2016 at 10:55:03 PM

Latest Report: Sep 27, 2016 at 9:55 PM


Visibility: N/A

Pressure: 30.30 "Hg

Humidity: 59%

Dew Point: 46 °F

Location of MonsLocation

Past Weather in Mons — Graph

°F

Mons Temperature Yesterday

Maximum temperature yesterday: 63 °F (at 2:55 PM)
Minimum temperature yesterday: 45 °F (at 5:25 AM)
Average temperature yesterday: 53 °F

High & Low Weather Summary for the Past Weeks

 TemperatureHumidityPressure
High88 °F (Sep 13, 2:55 PM)100% (Sep 15, 5:25 AM)30.30 "Hg (Sep 15, 5:25 AM)
Low41 °F (Sep 27, 6:25 AM)33% (Sep 13, 5:25 PM)29.77 "Hg (Sep 15, 5:55 AM)
Average62 °F75%30.06 "Hg
* Reported Sep 12 9:25 PM — Sep 27 9:55 PM, Mons, Weather by CustomWeather, © 2016

Note: Actual official high and low records may vary slightly from our data, if they occured in-between our weather recording intervals... More about our weather records

Advertising

Mons Weather History for the Previous 24 Hours

Scroll right to see more
 ConditionsComfort  
Time TempWeatherWind HumidityBarometerVisibility
9:55 PM
Tue, Sep 27
61 °FPassing clouds.7 mph59%30.30 "HgN/A
9:25 PM59 °FPassing clouds.7 mph68%30.30 "HgN/A
8:55 PM61 °FPassing clouds.7 mph59%30.30 "HgN/A
8:25 PM61 °FPassing clouds.7 mph59%30.30 "HgN/A
7:55 PM61 °FPassing clouds.7 mph63%30.30 "HgN/A
7:25 PM63 °FMild.7 mph56%30.30 "HgN/A
6:55 PM64 °FMild.6 mph52%30.30 "HgN/A
6:25 PM66 °FPassing clouds.8 mph49%30.30 "HgN/A
5:55 PM68 °FMild.9 mph43%30.30 "HgN/A
5:25 PM70 °FMild.10 mph40%30.30 "HgN/A
4:55 PM70 °FMild.9 mph40%30.27 "HgN/A
3:55 PM70 °FMild.9 mph38%30.30 "HgN/A
3:25 PM70 °FMild.9 mph38%30.30 "HgN/A
2:55 PM70 °FMild.8 mph40%30.30 "HgN/A
1:55 PM68 °FMild.8 mph40%30.30 "HgN/A
12:55 PM66 °FMild.7 mph49%30.30 "HgN/A
12:25 PM64 °FMild.7 mph60%30.30 "HgN/A
11:55 AM64 °FMild.5 mph60%30.30 "HgN/A
11:25 AM61 °FCool.7 mph68%30.30 "HgN/A
10:55 AM59 °FCool.6 mph72%30.30 "HgN/A
9:55 AM55 °FCool.2 mph82%30.30 "HgN/A
9:25 AM54 °FCool.1 mph82%30.30 "HgN/A
8:55 AM48 °FCool.1 mph94%30.30 "HgN/A
8:25 AM43 °FQuite cool.1 mph93%30.30 "Hg6 mi
7:55 AM43 °FFog.1 mph93%30.30 "HgN/A
6:55 AM41 °FQuite cool.2 mph100%30.27 "Hg6 mi
6:25 AM41 °FQuite cool.2 mph100%30.27 "Hg4 mi
5:25 AM43 °FQuite cool.2 mph93%30.27 "HgN/A
4:55 AM43 °FQuite cool.2 mph100%30.27 "Hg5 mi
4:25 AM43 °FQuite cool.2 mph100%30.27 "HgN/A
3:55 AM43 °FQuite cool.2 mph93%30.27 "HgN/A
3:25 AM43 °FFog.1 mph93%30.27 "HgN/A
2:55 AM45 °FDrizzle. Overcast.1 mph93%30.27 "Hg1 mi
2:25 AM45 °FQuite cool.1 mph93%30.27 "HgN/A
1:55 AM45 °FQuite cool.1 mph100%30.27 "HgN/A
1:25 AM46 °FCool.1 mph93%30.27 "Hg4 mi
12:55 AM46 °FCool.3 mph100%30.27 "HgN/A
12:25 AM46 °FPassing clouds.3 mph93%30.27 "HgN/A
11:55 PM
Mon, Sep 26
48 °FPassing clouds.1 mph94%30.24 "HgN/A
11:25 PM48 °FCool.1 mph94%30.24 "HgN/A
10:55 PM48 °FCool.2 mph94%30.24 "HgN/A
Weather by CustomWeather, © 2016

See weather overviewHow to use our weather pages